Redmond, OR

1:46 PM PDT on April 25, 2017 (GMT -0700)
Roberts Field Airport

Weather History for KRDM - November, 2010

Change the Weather History Date:

Saturday, November 13, 2010

  Actual Average Record
Temperature  
Mean Temperature 36 °F 38 °F  
Max Temperature 50 °F 50 °F 73 °F (1999)
Min Temperature 21 °F 27 °F -5 °F (1955)
Degree Days  
Heating Degree Days 29 27  
Month to date heating degree days 290 321  
Since 1 July heating degree days 1209 1266  
Cooling Degree Days 0 0  
Month to date cooling degree days 0 0  
Year to date cooling degree days 161 222  
Moisture  
Dew Point 33 °F    
Average Humidity 79    
Maximum Humidity 92    
Minimum Humidity 66    
Precipitation  
Precipitation 0.05 in 0.03 in 1.03 in (1988)
Month to date precipitation 0.32 0.40  
Year to date precipitation 9.10 7.18  
Sea Level Pressure  
Sea Level Pressure 30.49 in    
Wind  
Wind Speed 3 mph (ESE)    
Max Wind Speed 9 mph    
Max Gust Speed 13 mph    
Visibility 10 miles    
Events Rain    
T = Trace of Precipitation, MM = Missing Value Source: NWS Daily Summary

Daily Weather History Graph

Daily Weather History Graph

Search for Another Location

Airport or City:

Trip Planner

Search our weather history database for the weather conditions in past years. The results will help you decide how hot, cold, wet, or windy it might be!

Date:

Astronomy

Nov. 13, 2010 Rise Set
Actual Time 6:57 AM PST 4:39 PM PST
Civil Twilight 6:26 AM PST 5:10 PM PST
Nautical Twilight 5:51 AM PST 5:45 PM PST
Astronomical Twilight 5:17 AM PST 6:19 PM PST
Moon 12:51 PM PST (11/13) 11:57 PM PST (11/13)
Length of Visible Light 10h 44m
Length of Day
9h 41m
First Quarter, 51% of the Moon is Illuminated
Nov 13
First Quarter
Nov 21
Full
Nov 28
Last Quarter
Dec 5
New
Dec 13
First Quarter

Hourly Weather History & Observations

Time (PST) Temp. Windchill Dew Point Humidity Pressure Visibility Wind Dir Wind Speed Gust Speed Precip Events Conditions
12:56 AM 26.1 °F - 21.9 °F 84% 30.64 in 10.0 mi Calm Calm - N/A   Clear
1:56 AM 24.1 °F 17.0 °F 19.9 °F 84% 30.63 in 10.0 mi SSE 5.8 mph - N/A   Clear
2:56 AM 24.1 °F 18.2 °F 19.9 °F 84% 30.61 in 10.0 mi SSE 4.6 mph - N/A   Clear
3:56 AM 28.9 °F 25.2 °F 23.0 °F 78% 30.58 in 10.0 mi ESE 3.5 mph - N/A   Overcast
4:56 AM 30.0 °F 25.2 °F 24.1 °F 79% 30.60 in 10.0 mi ESE 4.6 mph - N/A   Mostly Cloudy
5:56 AM 30.9 °F 27.5 °F 26.1 °F 82% 30.62 in 10.0 mi SE 3.5 mph - 0.00 in Rain Light Freezing Rain
6:56 AM 30.9 °F 27.5 °F 28.0 °F 89% 30.60 in 10.0 mi East 3.5 mph - 0.02 in Rain Light Freezing Rain
7:40 AM 32.0 °F - 30.2 °F 93% 30.51 in 10.0 mi Calm Calm - 0.02 in Rain Light Rain
7:56 AM 32.0 °F - 30.0 °F 92% 30.57 in 10.0 mi Calm Calm - 0.02 in Rain Light Rain
8:56 AM 33.1 °F - 30.9 °F 92% 30.55 in 10.0 mi Calm Calm - 0.00 in   Overcast
9:56 AM 35.1 °F - 32.0 °F 89% 30.54 in 10.0 mi Calm Calm - N/A   Overcast
10:56 AM 37.9 °F 34.4 °F 33.1 °F 83% 30.52 in 10.0 mi East 4.6 mph - N/A   Overcast
11:56 AM 43.0 °F 40.3 °F 36.0 °F 76% 30.47 in 10.0 mi ENE 4.6 mph - N/A   Clear
12:56 PM 46.0 °F 44.8 °F 37.0 °F 71% 30.42 in 10.0 mi East 3.5 mph - N/A   Clear
1:56 PM 48.0 °F - 37.0 °F 66% 30.42 in 10.0 mi ENE 6.9 mph - N/A   Clear
2:56 PM 48.9 °F - 37.9 °F 66% 30.41 in 10.0 mi East 4.6 mph - N/A   Clear
3:56 PM 48.9 °F - 37.9 °F 66% 30.41 in 10.0 mi East 4.6 mph - N/A   Mostly Cloudy
4:56 PM 46.9 °F - 39.0 °F 74% 30.41 in 10.0 mi NE 4.6 mph - N/A   Mostly Cloudy
5:56 PM 43.0 °F 41.3 °F 37.9 °F 82% 30.41 in 10.0 mi South 3.5 mph - N/A   Partly Cloudy
6:56 PM 42.1 °F - 37.0 °F 82% 30.41 in 10.0 mi Calm Calm - N/A   Clear
7:00 PM 42.8 °F - 37.4 °F 81% 30.37 in 10.0 mi Calm Calm - N/A   Clear
7:56 PM 42.1 °F 40.2 °F 37.0 °F 82% 30.40 in 10.0 mi SE 3.5 mph - N/A   Partly Cloudy
8:56 PM 42.1 °F - 37.9 °F 85% 30.40 in 10.0 mi Calm Calm - N/A   Overcast
9:56 PM 42.1 °F 40.2 °F 39.9 °F 92% 30.40 in 10.0 mi ESE 3.5 mph - 0.01 in Rain Light Rain
10:56 PM 42.1 °F - 39.9 °F 92% 30.38 in 10.0 mi Calm Calm - 0.00 in   Overcast
11:56 PM 42.1 °F 40.2 °F 39.9 °F 92% 30.35 in 10.0 mi East 3.5 mph - N/A   Overcast